COSMOS 2491 DEB, 57556

Orbit data source: Space-Track

COSMOS 2491 DEB, 57556 is space debris in LEO originally from a launch on Wed, 25 Dec 2013 UTC launched from the Plesetsk Missile And Space Complex (PKMTR). Debris objects in space refer to the collection of defunct objects orbiting the Earth. Examples of debris include non-operational satellites, rocket bodies, and fragments generated from explosions, collisions, or faulty payload assembly.

Loading next visibility...
Identifier
57556, 2013-076AT
Orbit
LEO
Country
Flag of CISCIS
Related business
Manufacturer
TsNIIKhM
Mission
Spacecraft
Bus & Motor
Unknown
Mass
Unknown
Launch date (UTC)
2013-12-25 (12 years ago)
Launch vehicle
Unknown
Launch site
Plesetsk Missile And Space Complex (PKMTR)
Object type
Payload
Rocket body
Debris
Shape & HBR
Unknown shape, 0.1 m
Radar Cross Section
Small (<0.1 m²)

Expand to show TLE details & history
Last TLE update: 1 week ago

TLE from 1 week ago
0 COSMOS 2491 DEB
1 57556U 13076AT  26166.67589505  .00001451  00000-0  94075-2 0  9999
2 57556  82.4780 161.1578 0036200  51.7923 308.6411 12.50400644141449
Epoch: 2026-06-15T16:13Z
TLE epoch observation values (Epoch: 2026-06-15T16:13:17.332Z)
Latitude
-0.00004°
Longitude
13.87671°
Altitude
1,447.865 km
Speed
7.146 km/s
True Right ascension
10h 44m 37s
True Declination
0° 00' 00"
Sunlit
Object was in daylight at epoch
Visualization orbit readout
Latitude
Unknown
Longitude
Unknown
Altitude
Unknown
Speed
Unknown
Apparent Right ascension
Unknown
Apparent Declination
Unknown
Sunlit
N/A
Visualization observer readout
Local Sidereal Time
21:40:52
Azimuth
Unknown
Elevation
Unknown
Doppler factor
Unknown
Orbital elements
Apogee altitude
1,488.536 km
Perigee altitude
1,431.786 km
Semi-major axis
7,838.298 km
Eccentricity
0.00362
Inclination
82.478°
RAAN
161.1578°
Arg. of periapsis
51.7923°
True anomaly
308.31618°
Mean anomaly
308.6411°
Eccentric anomaly
308.47873°
Mean motion
3.1276 °/min
Orbital period
115.1 mins
BSTAR
0.0094075
Loading maneuver chart data...
Computing Atmospheric mass density...
Loading historical data...
Loading historical data...
Loading historical data...
Loading historical data...
Loading historical data...
Loading historical data...
Loading historical data...

Documentation

Showing up to 5 results
|